Location: *
(51.1248°S, 108.4023°W)
Time: 05:06:47
(UTC+00:00)

Cosmos 1656 - Pass Details

Date: 15 June 2021
Orbit: 797 x 850 km, 71.1° (Epoch: 31 July)

Event Time Altitude Azimuth Distance (km) Brightness Sun altitude
Rises 14:16:53 0° 335° (NNW) 3,371 6.9 -8.8°
Reaches altitude 10° 14:19:19 10° 335° (NNW) 2,436 6.1 -8.4°
Maximum altitude 14:24:54 84° 61° (ENE) 839 3.8 -7.7°
Drops below altitude 10° 14:30:29 10° 149° (SSE) 2,429 6.1 -6.9°
Sets 14:32:54 0° 149° (SSE) 3,360 6.8 -6.6°
